FW2270 Weather Reports


Display with metric or nautical units.
time (UTC)temp
F
wind
direction
speed
MPH
gust
MPH
rain 1hr
in
rain 24hr
in
rain mn
in
humidity
%
barometer
mb
20260510102426 51 300 0.0 1.0 0.00 0.00 0.00 96 1015.3
20260510101424 51 300 0.0 1.0 0.00 0.00 0.00 96 1015.3
20260510100439 51 328 0.0 1.0 0.00 0.00 0.00 96 1015.3
20260510095431 51 328 0.0 1.0 0.00 0.00 0.00 96 1015.2
20260510094446 51 324 0.0 2.0 0.00 0.00 0.00 96 1015.2
20260510093423 51 324 0.0 1.0 0.00 0.00 0.00 96 1015.1
20260510092416 51 324 0.0 1.0 0.00 0.00 0.00 96 1015.2
20260510091430 51 324 0.0 2.0 0.00 0.00 0.00 96 1015.2
20260510090424 51 311 0.0 2.0 0.00 0.00 0.00 96 1015.3
20260510085420 51 293 0.0 1.0 0.00 0.00 0.00 96 1015.2
20260510084415 51 293 0.0 2.0 0.00 0.00 0.00 96 1015.3
20260510083429 51 293 0.0 2.0 0.00 0.00 0.00 96 1015.5
20260510082423 51 312 0.0 2.0 0.00 0.00 0.00 96 1015.4
20260510081422 51 312 2.0 6.0 0.00 0.00 0.00 96 1015.4
20260510080437 51 288 0.0 1.0 0.00 0.00 0.00 96 1015.4
20260510075429 51 288 0.0 5.0 0.00 0.00 0.00 96 1015.4
20260510074444 51 270 0.0 5.0 0.00 0.00 0.00 96 1015.5
20260510073441 51 260 0.0 3.0 0.00 0.00 0.00 96 1015.5
20260510072434 51 244 0.0 4.0 0.00 0.00 0.00 96 1015.5
20260510071427 51 259 1.0 6.0 0.00 0.00 0.00 96 1015.5
20260510070441 51 253 2.0 7.0 0.00 0.00 0.00 96 1015.4
20260510065417 51 281 0.0 3.0 0.00 0.00 0.00 96 1015.4
20260510064451 51 289 1.0 6.0 0.00 0.00 0.00 96 1015.3
20260510063424 52 285 0.0 6.0 0.00 0.00 0.00 96 1015.3
20260510062418 52 295 0.0 3.0 0.00 0.00 0.00 96 1015.3
20260510061416 52 298 1.0 4.0 0.00 0.00 0.00 96 1015.3
20260510060451 52 266 1.0 5.0 0.00 0.00 0.00 96 1015.4
20260510055442 52 270 0.0 4.0 0.00 0.00 0.00 96 1015.4
20260510054435 52 277 1.0 5.0 0.00 0.00 0.00 96 1015.5
20260510053433 52 260 1.0 5.0 0.00 0.00 0.00 96 1015.4
20260510052427 52 291 1.0 4.0 0.00 0.00 0.00 96 1015.4
20260510051422 52 268 1.0 6.0 0.00 0.00 0.00 96 1015.4
20260510050420 52 284 1.0 6.0 0.00 0.00 0.00 96 1015.3
20260510045453 52 253 4.0 7.0 0.00 0.00 0.00 96 1015.3
20260510044425 52 267 2.0 7.0 0.00 0.00 0.00 96 1015.2
20260510043441 52 274 2.0 6.0 0.00 0.00 0.00 96 1015.2
20260510042418 52 270 4.0 7.0 0.00 0.00 0.00 95 1015.0
20260510041431 52 272 2.0 7.0 0.00 0.00 0.00 95 1015.0
20260510040425 52 261 1.0 5.0 0.00 0.00 0.00 95 1014.9
20260510035418 52 275 0.0 4.0 0.00 0.00 0.00 95 1014.8
20260510034417 52 277 1.0 4.0 0.00 0.00 0.00 95 1014.8
20260510033451 53 272 0.0 3.0 0.00 0.00 0.00 94 1014.6
20260510032423 53 286 1.0 5.0 0.00 0.00 0.00 94 1014.6
20260510031415 53 261 2.0 9.0 0.00 0.00 0.00 93 1014.5
20260510030431 54 289 2.0 7.0 0.00 0.00 0.00 92 1014.6
20260510025424 55 277 1.0 5.0 0.00 0.00 0.00 91 1014.6
20260510024419 56 275 2.0 7.0 0.00 0.00 0.00 90 1014.5
20260510023418 57 271 4.0 8.0 0.00 0.00 0.00 89 1014.5
20260510022433 58 284 1.0 9.0 0.00 0.00 0.00 87 1014.4
20260510021426 58 271 3.0 11.0 0.00 0.00 0.00 86 1014.4
20260510020438 60 314 1.0 6.0 0.00 0.00 0.00 86 1014.5
20260510015436 60 288 1.0 7.0 0.00 0.00 0.00 85 1014.5
20260510014428 60 226 1.0 7.0 0.00 0.00 0.00 85 1014.5
20260510013442 61 286 1.0 7.0 0.00 0.00 0.00 84 1014.5
20260510012414 61 251 2.0 10.0 0.00 0.00 0.00 85 1014.5
20260510011413 61 281 3.0 10.0 0.00 0.00 0.00 85 1014.5
20260510010427 61 270 4.0 10.0 0.00 0.00 0.00 84 1014.6
20260510005421 62 290 4.0 10.0 0.00 0.00 0.00 83 1014.6
20260510004417 62 275 3.0 10.0 0.00 0.00 0.00 83 1014.6
20260510003431 62 270 3.0 10.0 0.00 0.00 0.00 83 1014.8
20260510002426 63 286 3.0 13.0 0.00 0.00 0.00 83 1014.9
20260510001420 63 285 3.0 7.0 0.00 0.00 0.00 84 1015.0
20260510000440 62 286 4.0 10.0 0.00 0.00 0.00 83 1014.9
20260509235430 63 275 3.0 9.0 0.00 0.00 0.00 84 1014.9
20260509234424 63 263 4.0 12.0 0.00 0.00 0.00 83 1015.1
20260509233419 63 267 5.0 11.0 0.00 0.00 0.00 82 1015.2
20260509232437 64 282 3.0 10.0 0.00 0.00 0.00 83 1015.2
20260509231430 64 284 4.0 8.0 0.00 0.00 0.00 82 1015.2
20260509230424 64 297 3.0 12.0 0.00 0.00 0.00 83 1015.3
20260509225421 64 292 2.0 9.0 0.00 0.00 0.00 83 1015.2
20260509224514 64 286 3.0 11.0 0.00 0.00 0.00 85 1015.4
20260509223423 64 273 5.0 10.0 0.00 0.00 0.00 83 1015.5
20260509222418 64 265 6.0 12.0 0.00 0.00 0.00 82 1015.6
20260509221415 65 261 7.0 14.0 0.00 0.00 0.00 80 1015.8
20260509220429 65 280 4.0 13.0 0.00 0.00 0.00 81 1015.9
20260509215422 65 277 5.0 10.0 0.00 0.00 0.00 82 1016.0
20260509214416 65 284 4.0 10.0 0.00 0.00 0.00 81 1016.1
20260509213454 65 266 3.0 12.0 0.00 0.00 0.00 82 1016.2
20260509212426 65 319 6.0 12.0 0.00 0.00 0.00 79 1016.2
20260509211420 65 263 4.0 13.0 0.00 0.00 0.00 82 1016.2
20260509210434 66 270 5.0 12.0 0.00 0.00 0.00 80 1016.2
20260509205429 65 279 6.0 13.0 0.00 0.00 0.00 78 1016.4
20260509204424 66 272 6.0 10.0 0.00 0.00 0.00 78 1016.3
20260509203419 65 288 5.0 14.0 0.00 0.00 0.00 80 1016.4
20260509202438 65 315 7.0 11.0 0.00 0.00 0.00 80 1016.4
20260509201451 66 275 7.0 13.0 0.00 0.00 0.00 80 1016.4
20260509200424 66 330 3.0 10.0 0.00 0.00 0.00 80 1016.6
20260509195417 66 277 5.0 11.0 0.00 0.00 0.00 78 1016.6
20260509194416 67 312 4.0 10.0 0.00 0.00 0.00 78 1016.6
20260509193431 68 287 4.0 9.0 0.00 0.00 0.00 78 1016.5
20260509192425 68 251 4.0 11.0 0.00 0.00 0.00 76 1016.5
20260509191419 69 265 4.0 10.0 0.00 0.00 0.00 77 1016.5
20260509190417 70 253 3.0 6.0 0.00 0.00 0.00 75 1016.5
20260509185429 70 253 1.0 5.0 0.00 0.00 0.00 78 1016.7
20260509184421 69 282 3.0 7.0 0.00 0.00 0.00 74 1016.9
20260509183513 69 232 2.0 6.0 0.00 0.00 0.00 73 1016.9
20260509111427 48 270 0.0 0.0 0.00 0.00 0.00 97 1016.5
20260509110442 47 270 0.0 0.0 0.00 0.00 0.00 96 1016.5
20260509105433 48 270 0.0 0.0 0.00 0.00 0.00 96 1016.4
20260509104431 48 270 0.0 0.0 0.00 0.00 0.00 96 1016.4
20260509103443 48 270 0.0 0.0 0.00 0.00 0.00 96 1016.4